Location: Hobi?a Gr?di?te
(45.4833°N, 22.7833°E)
Time: 21:19:42
(UTC+00:00)

Cosmos 2322 Rocket - Pass Details

Date: 28 January 2023
Orbit: 832 x 851 km, 71.0° (Epoch: 23 March)

Event Time Altitude Azimuth Distance (km) Brightness Sun altitude
Rises 18:01:49 0° 200° (SSW) 3,363 5.6 -26.7°
Reaches altitude 10° 18:04:14 10° 199° (SSW) 2,433 4.8 -27.1°
Enters shadow 18:08:50 61° 185° (S) 940 2.3 -28.0°
